Photometre #846[NE_1.6_Dp] Lerwick_MO AOT

File : 20221125_846.hum

25/11/2022,09:07:03,TEMP=8.3,BA=5.68,STAT.D,ExtBa=12.50
25/11/2022,09:22:03,TEMP=8.4,BA=5.64,STAT.D,ExtBa=12.50
25/11/2022,09:37:03,TEMP=8.1,BA=5.64,STAT.D,ExtBa=12.50
25/11/2022,09:52:05,TEMP=8.4,BA=5.64,STAT.F,ExtBa=12.40
25/11/2022,10:32:20,TEMP=9.5,BA=5.64,STAT.D,ExtBa=12.30
25/11/2022,10:46:18,TEMP=9.9,BA=5.64,STAT.D,ExtBa=12.30
25/11/2022,11:00:39,TEMP=10.1,BA=5.64,STAT.D,ExtBa=12.30
25/11/2022,11:15:17,TEMP=10.2,BA=5.64,STAT.F,ExtBa=12.30
25/11/2022,11:46:17,TEMP=11.1,BA=5.60,STAT.D,ExtBa=12.20
25/11/2022,12:00:33,TEMP=10.4,BA=5.60,STAT.D,ExtBa=12.30
25/11/2022,12:19:09,TEMP=10.1,BA=5.60,STAT.D,ExtBa=12.30
25/11/2022,12:34:01,TEMP=10.2,BA=5.60,STAT.F,ExtBa=12.30
25/11/2022,13:03:20,TEMP=11.2,BA=5.60,STAT.D,ExtBa=12.20
25/11/2022,13:17:12,TEMP=9.7,BA=5.60,STAT.D,ExtBa=12.30
25/11/2022,13:31:05,TEMP=9.4,BA=5.60,STAT.D,ExtBa=12.30
25/11/2022,13:44:59,TEMP=9.4,BA=5.60,STAT.F,ExtBa=12.30
25/11/2022,13:55:57,TEMP=10.1,BA=5.56,STAT.D,ExtBa=12.20
25/11/2022,14:09:47,TEMP=9.5,BA=5.60,STAT.D,ExtBa=12.30
25/11/2022,14:23:37,TEMP=9.5,BA=5.60,STAT.D,ExtBa=12.30
25/11/2022,14:37:04,TEMP=9.9,BA=5.60,STAT.h
25/11/2022,14:37:10,TEMP=9.9,BA=5.60,STAT.h
25/11/2022,14:37:16,TEMP=9.9,BA=5.60,STAT.h
25/11/2022,14:37:17,TEMP=9.9,BA=5.60,STAT.h
25/11/2022,14:37:18,TEMP=9.9,BA=5.60,STAT.h
25/11/2022,14:37:19,TEMP=9.9,BA=5.60,STAT.h